TimeEST,TemperatureF,Dew PointF,Humidity,Sea Level PressureIn,VisibilityMPH,Wind Direction,Wind SpeedMPH,Gust SpeedMPH,PrecipitationIn,Events,Conditions,WindDirDegrees,DateUTC
12:15 AM,37.4,30.2,75,30.11,10.0,West,4.6,-,N/A,,Clear,260,2012-01-01 05:15:00
12:35 AM,41.0,28.4,61,30.11,10.0,Calm,Calm,-,N/A,,Clear,0,2012-01-01 05:35:00
1:15 AM,37.4,28.4,70,30.10,10.0,SW,3.5,-,N/A,,Clear,230,2012-01-01 06:15:00
1:35 AM,37.4,28.4,70,30.11,10.0,West,5.8,-,N/A,,Clear,260,2012-01-01 06:35:00
2:35 AM,39.2,28.4,65,30.11,10.0,Calm,Calm,-,N/A,,Clear,0,2012-01-01 07:35:00
2:55 AM,35.6,28.4,75,30.11,10.0,West,3.5,-,N/A,,Clear,260,2012-01-01 07:55:00
3:15 AM,37.4,28.4,70,30.11,10.0,West,3.5,-,N/A,,Clear,270,2012-01-01 08:15:00
3:35 AM,39.2,28.4,65,30.10,10.0,West,3.5,-,N/A,,Clear,270,2012-01-01 08:35:00
3:55 AM,41.0,28.4,61,30.09,10.0,Calm,Calm,-,N/A,,Clear,0,2012-01-01 08:55:00
4:35 AM,41.0,28.4,61,30.09,10.0,West,3.5,-,N/A,,Clear,260,2012-01-01 09:35:00
4:55 AM,39.2,28.4,65,30.09,10.0,WSW,3.5,-,N/A,,Clear,250,2012-01-01 09:55:00
5:15 AM,32.0,26.6,80,30.08,10.0,SW,3.5,-,N/A,,Clear,230,2012-01-01 10:15:00
5:35 AM,35.6,26.6,70,30.08,10.0,WSW,4.6,-,N/A,,Clear,240,2012-01-01 10:35:00
5:55 AM,35.6,26.6,70,30.07,10.0,Calm,Calm,-,N/A,,Clear,0,2012-01-01 10:55:00
6:15 AM,35.6,28.4,75,30.07,10.0,Calm,Calm,-,N/A,,Clear,0,2012-01-01 11:15:00
6:35 AM,39.2,28.4,65,30.07,10.0,Calm,Calm,-,N/A,,Clear,0,2012-01-01 11:35:00
6:55 AM,37.4,26.6,65,30.07,10.0,Calm,Calm,-,N/A,,Clear,0,2012-01-01 11:55:00
7:15 AM,35.6,26.6,70,30.07,10.0,Calm,Calm,-,N/A,,Clear,0,2012-01-01 12:15:00
7:35 AM,35.6,26.6,70,30.06,10.0,Calm,Calm,-,N/A,,Clear,0,2012-01-01 12:35:00
7:55 AM,37.4,28.4,70,30.06,10.0,Calm,Calm,-,N/A,,Clear,0,2012-01-01 12:55:00
8:15 AM,37.4,28.4,70,30.06,10.0,Calm,Calm,-,N/A,,Clear,0,2012-01-01 13:15:00
8:35 AM,39.2,30.2,70,30.05,10.0,SSW,3.5,-,N/A,,Clear,210,2012-01-01 13:35:00
8:55 AM,39.2,32.0,75,30.04,10.0,SSE,4.6,-,N/A,,Scattered Clouds,160,2012-01-01 13:55:00
9:15 AM,41.0,32.0,70,30.04,10.0,Calm,Calm,-,N/A,,Scattered Clouds,0,2012-01-01 14:15:00
9:35 AM,41.0,32.0,70,30.04,10.0,Calm,Calm,-,N/A,,Mostly Cloudy,0,2012-01-01 14:35:00
10:15 AM,41.0,32.0,70,30.03,10.0,Calm,Calm,-,N/A,,Overcast,0,2012-01-01 15:15:00
10:35 AM,42.8,30.2,61,30.03,10.0,SSW,3.5,-,N/A,,Overcast,200,2012-01-01 15:35:00
10:55 AM,44.6,30.2,57,30.01,10.0,Calm,Calm,-,N/A,,Overcast,0,2012-01-01 15:55:00
11:15 AM,46.4,32.0,57,29.99,10.0,Calm,Calm,-,N/A,,Mostly Cloudy,0,2012-01-01 16:15:00
11:35 AM,50.0,33.8,54,29.96,10.0,SSE,4.6,-,N/A,,Scattered Clouds,150,2012-01-01 16:35:00
11:55 AM,55.4,35.6,47,29.92,10.0,SSE,3.5,-,N/A,,Scattered Clouds,150,2012-01-01 16:55:00
12:15 PM,55.4,35.6,47,29.90,10.0,SSE,5.8,-,N/A,,Clear,160,2012-01-01 17:15:00
12:55 PM,53.6,33.8,47,29.88,10.0,SSE,9.2,-,N/A,,Mostly Cloudy,160,2012-01-01 17:55:00
1:15 PM,51.8,33.8,50,29.87,10.0,SSE,4.6,-,N/A,,Overcast,150,2012-01-01 18:15:00
1:35 PM,51.8,33.8,50,29.86,10.0,SSE,6.9,-,N/A,,Overcast,160,2012-01-01 18:35:00
2:15 PM,50.0,44.6,82,29.90,4.0,WNW,15.0,27.6,N/A,,Drizzle,290,2012-01-01 19:15:00
2:35 PM,50.0,42.8,76,29.90,5.0,WNW,17.3,28.8,0.01,Rain,Rain,290,2012-01-01 19:35:00
2:55 PM,50.0,42.8,76,29.90,10.0,WNW,24.2,33.4,0.01,,Light Drizzle,290,2012-01-01 19:55:00
3:15 PM,50.0,41.0,71,29.89,10.0,West,25.3,41.4,N/A,,Overcast,270,2012-01-01 20:15:00
3:35 PM,50.0,39.2,66,29.90,10.0,West,17.3,42.6,N/A,,Overcast,280,2012-01-01 20:35:00
3:55 PM,50.0,37.4,62,29.90,10.0,West,27.6,44.9,N/A,,Overcast,280,2012-01-01 20:55:00
4:15 PM,50.0,35.6,58,29.91,10.0,West,17.3,46.0,N/A,,Overcast,280,2012-01-01 21:15:00
4:35 PM,50.0,35.6,58,29.93,10.0,West,15.0,35.7,N/A,,Mostly Cloudy,260,2012-01-01 21:35:00
4:55 PM,50.0,33.8,54,29.92,10.0,West,16.1,32.2,N/A,,Overcast,280,2012-01-01 21:55:00
5:15 PM,48.2,37.4,66,29.93,10.0,WNW,18.4,29.9,N/A,,Overcast,290,2012-01-01 22:15:00
5:35 PM,46.4,35.6,66,29.94,10.0,West,15.0,27.6,N/A,,Overcast,280,2012-01-01 22:35:00
5:55 PM,46.4,33.8,62,29.96,10.0,West,12.7,21.9,N/A,,Overcast,270,2012-01-01 22:55:00
6:15 PM,46.4,32.0,57,29.96,10.0,West,15.0,29.9,N/A,,Overcast,280,2012-01-01 23:15:00
6:35 PM,44.6,32.0,61,29.96,10.0,West,10.4,18.4,N/A,,Overcast,280,2012-01-01 23:35:00
6:55 PM,44.6,32.0,61,29.96,10.0,West,19.6,38.0,N/A,,Mostly Cloudy,280,2012-01-01 23:55:00
7:15 PM,44.6,32.0,61,29.97,10.0,West,13.8,28.8,N/A,,Mostly Cloudy,280,2012-01-02 00:15:00
7:35 PM,42.8,30.2,61,29.98,10.0,WNW,11.5,28.8,N/A,,Overcast,300,2012-01-02 00:35:00
7:55 PM,42.8,30.2,61,29.98,10.0,WNW,9.2,25.3,N/A,,Overcast,290,2012-01-02 00:55:00
8:15 PM,41.0,28.4,61,29.98,10.0,WNW,3.5,23.0,N/A,,Overcast,300,2012-01-02 01:15:00
8:35 PM,39.2,28.4,65,29.99,10.0,NNW,8.1,17.3,N/A,,Overcast,340,2012-01-02 01:35:00
8:55 PM,37.4,28.4,70,30.00,10.0,WNW,16.1,21.9,N/A,,Overcast,290,2012-01-02 01:55:00
9:15 PM,37.4,26.6,65,30.00,10.0,NNW,16.1,27.6,N/A,,Mostly Cloudy,330,2012-01-02 02:15:00
9:35 PM,35.6,24.8,65,30.01,10.0,WNW,11.5,17.3,N/A,,Overcast,290,2012-01-02 02:35:00
9:55 PM,35.6,24.8,65,30.01,10.0,WNW,13.8,18.4,N/A,,Overcast,300,2012-01-02 02:55:00
10:15 PM,35.6,21.2,56,30.00,10.0,West,16.1,24.2,N/A,,Overcast,280,2012-01-02 03:15:00
10:35 PM,33.8,21.2,60,30.01,10.0,WNW,13.8,24.2,N/A,,Overcast,300,2012-01-02 03:35:00
11:15 PM,33.8,19.4,56,29.99,10.0,WNW,11.5,34.5,N/A,,Overcast,290,2012-01-02 04:15:00
11:35 PM,33.8,19.4,56,29.98,10.0,NW,11.5,20.7,N/A,,Overcast,320,2012-01-02 04:35:00